RH
91 94 86 84 95 105 104 90 75 69 64 56 49 44 40 38 39 40 38 42 48 49 48 47 50 62 61 50 49 51 50 52 50 48 47 44 41 41 41 42 43 45 46 51 54 55 56 56 53 50 48 47 48 48 49 51 50 50 50 48 46 44 43 43 43 42 41 41 41 42 43 47 49 50 53 55 59 62 63 63 65 66 66 69 74 76 78
65 64 71 89 102 105 102 91 77 70 64 57 51 45 41 41 41 39 38 41 47 50 52 53 51 53 54 51 50 49 48 49 48 47 48 46 43 41 42 43 44 47 50 53 55 55 54 53 50 48 46 46 46 46 47 48 48 48 47 46 44 42 43 43 43 43 43 42 43 44 46 50 53 55 57 58 59 60 62 63 63 66 66 67 72 76 78
80 73 77 93 103 105 102 90 77 72 66 60 54 46 45 49 46 40 39 41 44 49 54 57 54 51 50 50 49 48 47 47 46 46 47 46 44 42 43 45 47 50 53 54 53 50 49 48 46 44 43 43 43 44 44 45 45 46 45 43 41 40 40 41 42 43 43 43 44 47 50 54 57 60 61 60 59 59 60 61 62 65 65 64 67 72 75
100 98 96 99 103 107 105 92 80 74 66 61 57 49 48 52 47 40 39 41 43 47 56 62 61 56 52 49 49 48 47 46 45 46 46 46 46 45 44 47 50 52 52 50 47 46 47 46 44 42 41 41 41 42 42 43 44 44 43 41 39 38 38 39 40 40 40 41 43 46 51 55 58 59 58 57 57 58 59 60 61 62 63 62 65 68 71
101 101 100 100 103 108 106 96 86 78 69 63 59 53 49 48 46 42 38 39 42 46 55 64 64 58 54 50 49 48 47 46 46 45 46 47 47 46 46 47 49 52 50 45 44 47 50 49 46 44 41 39 40 41 42 42 43 43 42 40 37 37 38 39 40 41 41 41 43 46 50 53 54 53 53 53 54 56 57 58 59 59 59 60 62 65 67
102 101 100 100 102 105 105 101 92 82 72 65 61 56 51 48 48 47 42 40 41 44 50 60 63 59 54 51 49 48 48 47 46 45 46 47 48 47 47 47 49 52 50 44 44 49 53 52 50 45 41 39 40 41 42 42 43 42 41 39 37 37 38 40 41 41 42 42 43 46 48 50 49 49 49 50 51 52 53 53 54 55 56 57 59 62 64
102 101 100 99 101 104 107 106 96 84 75 69 63 58 54 51 50 51 48 44 44 44 47 56 63 60 54 51 50 50 50 49 47 46 47 47 48 47 47 48 50 52 51 47 46 50 53 53 50 44 39 39 40 41 42 42 42 42 40 38 37 37 38 41 42 43 44 44 44 47 48 48 48 48 48 48 48 49 49 48 49 51 52 53 55 57 58
96 100 102 100 100 103 106 107 100 90 80 73 65 60 58 56 54 52 49 45 45 45 46 53 59 58 54 53 51 50 51 51 49 48 48 48 48 47 46 47 49 51 51 49 48 50 52 50 47 41 38 38 39 41 41 41 41 40 39 36 36 37 39 41 42 44 44 43 43 46 48 49 49 49 48 48 49 48 48 48 49 51 52 52 54 55 56
86 93 103 102 100 102 104 105 104 96 87 77 67 62 58 55 55 56 51 46 47 48 47 49 54 56 55 53 51 50 51 52 52 51 49 49 50 48 46 46 48 49 47 47 48 49 49 46 43 38 36 37 39 40 40 40 40 38 37 36 35 36 39 41 43 44 44 41 42 46 48 48 50 50 49 49 50 49 50 52 54 55 54 53 53 54 55
82 84 99 102 99 101 102 104 105 101 94 82 69 64 60 56 59 62 58 52 51 50 47 47 50 53 54 53 52 53 53 53 54 54 52 50 50 49 47 46 48 47 44 43 45 46 44 42 39 37 36 37 38 39 38 38 38 37 36 35 35 38 41 43 45 46 44 41 42 48 49 47 49 51 51 52 51 49 50 54 57 56 54 53 53 52 52
76 76 96 102 99 101 102 103 104 102 97 87 75 68 62 56 59 62 61 58 52 48 47 48 48 50 51 53 55 54 55 57 57 55 53 52 51 49 48 48 48 47 43 41 42 42 41 40 37 36 37 37 38 38 38 37 37 37 35 35 36 39 42 46 48 47 44 41 44 49 50 49 51 51 51 54 53 50 49 52 55 55 54 53 54 54 54
65 73 97 102 98 101 101 101 103 103 101 95 84 71 61 56 54 53 57 58 51 47 50 50 49 50 50 52 54 55 56 58 57 55 54 52 51 50 48 49 48 46 44 41 40 40 39 38 37 36 36 37 37 37 36 36 36 36 35 35 37 41 44 47 48 47 44 43 47 50 49 51 54 53 52 55 56 53 50 50 52 53 54 54 54 55 57
60 76 99 101 99 101 100 101 102 102 104 103 92 76 67 64 57 49 52 54 51 52 57 53 50 52 52 52 53 54 55 55 55 54 54 52 51 50 49 49 49 47 44 41 39 38 38 37 37 37 37 36 36 36 36 36 36 35 35 35 38 43 46 46 46 46 45 45 50 52 50 50 54 56 56 57 59 58 54 51 51 51 53 55 56 57 58
74 88 101 100 100 101 100 101 102 101 104 106 97 84 73 64 55 48 47 48 52 58 61 58 55 55 56 56 54 53 54 54 54 53 53 51 50 49 49 49 49 48 44 41 39 38 38 38 38 37 37 36 35 35 36 36 35 35 35 36 39 44 45 45 45 45 44 45 49 53 56 57 57 59 59 57 59 61 59 56 53 51 51 54 56 59 60
94 99 101 99 100 101 100 101 101 100 103 105 100 92 79 62 52 48 45 46 51 55 60 65 64 60 59 58 56 55 54 53 54 53 51 50 48 47 48 49 49 48 44 41 40 39 39 39 39 37 36 35 35 35 35 35 35 35 35 36 41 45 44 43 44 44 45 48 49 50 56 61 61 61 61 58 59 62 63 62 60 56 54 53 56 60 63
100 100 100 99 100 100 100 101 100 100 102 104 101 94 81 63 52 49 47 45 46 53 65 71 65 61 64 62 57 57 57 55 55 53 50 48 46 46 46 47 48 48 45 41 40 40 40 39 38 37 36 35 35 35 35 35 35 35 35 38 42 45 44 44 44 43 45 50 53 51 53 57 60 63 64 62 60 60 62 64 63 62 61 58 56 59 63
100 100 100 100 100 100 100 100 100 100 101 103 103 95 82 67 54 49 48 45 44 52 65 67 61 58 62 64 61 60 60 59 57 54 51 48 45 45 45 46 47 47 45 43 42 41 40 39 38 36 36 35 35 35 35 35 36 35 35 39 43 44 45 46 45 45 47 51 55 56 57 59 60 62 65 66 62 58 59 62 64 65 66 66 64 62 62
100 100 100 100 100 100 100 100 100 101 100 102 105 99 85 70 57 50 49 48 46 49 53 58 64 63 58 58 62 63 62 62 60 55 52 48 46 45 45 45 46 44 43 43 42 40 39 38 37 35 35 35 34 34 35 36 37 37 37 42 45 44 46 48 47 49 52 53 55 58 61 62 60 60 64 66 62 59 59 61 65 66 66 65 64 63 63
100 100 99 100 100 100 100 100 100 101 100 101 105 103 90 73 59 53 50 49 51 55 53 53 59 60 54 52 57 58 59 61 59 56 53 50 47 46 45 44 43 42 41 41 40 39 38 37 36 35 34 34 34 35 36 37 38 37 39 45 47 45 47 49 50 52 53 53 53 54 57 61 61 59 61 63 64 65 66 66 67 70 71 69 65 62 64
99 100 99 100 100 100 100 101 100 101 100 100 104 105 95 77 62 55 52 49 52 58 58 53 50 52 52 51 51 51 53 54 54 52 52 50 47 45 44 43 41 40 40 39 38 38 37 36 35 34 33 34 35 36 37 38 39 39 42 46 47 46 49 52 53 54 56 57 56 54 55 60 62 62 62 63 65 68 70 70 70 69 71 74 73 70 68
100 100 100 100 100 100 101 100 100 100 100 101 103 105 100 84 67 57 54 53 52 54 57 57 53 51 51 49 48 49 49 49 49 49 48 47 45 44 43 42 40 39 39 39 38 38 36 35 35 34 34 35 37 38 40 40 39 41 45 47 45 46 51 54 53 52 53 56 58 57 56 57 59 62 65 64 64 65 67 68 69 68 66 68 71 72 71
100 100 100 101 100 101 101 101 100 100 100 102 103 105 104 92 74 61 56 55 55 54 56 58 57 54 52 50 48 47 47 47 47 46 46 44 42 42 43 41 40 40 40 39 39 37 36 36 35 35 35 37 39 41 43 43 41 43 47 48 46 47 51 53 53 51 50 50 53 56 59 60 59 61 63 64 63 62 61 61 62 64 63 62 63 66 67
100 100 101 101 100 101 102 101 100 100 100 101 102 104 107 100 82 67 61 59 57 57 57 57 58 58 56 54 51 48 48 47 47 45 44 43 42 42 41 40 40 40 39 38 38 37 37 36 36 36 38 40 43 44 45 47 46 46 47 47 47 50 52 50 50 51 51 51 51 51 54 59 60 58 57 58 59 58 56 55 54 55 56 56 56 56 57
99 99 100 101 100 101 102 100 100 100 100 101 102 102 106 105 91 73 66 63 61 60 59 58 59 61 61 59 56 53 50 49 47 46 44 42 42 42 40 40 40 40 39 39 38 38 38 38 38 39 41 43 46 47 48 49 49 50 51 49 48 51 52 50 49 50 52 55 57 55 52 54 56 57 56 55 55 55 55 55 54 54 55 55 55 55 55
100 98 99 100 99 99 101 101 100 101 99 101 102 101 102 106 98 81 71 68 65 63 61 60 61 63 63 61 60 58 55 52 50 47 45 43 43 42 41 40 40 40 41 41 40 40 40 41 41 43 45 47 49 50 51 52 52 53 56 56 53 52 50 49 49 51 52 53 56 59 57 55 54 56 57 58 57 57 57 57 57 57 58 58 59 58 57
100 99 99 100 98 97 99 99 100 101 100 100 101 100 101 105 103 89 77 72 70 66 63 61 61 62 63 63 63 61 59 56 53 50 48 46 44 44 43 43 43 43 44 43 43 43 43 44 46 47 48 50 52 53 54 56 57 57 57 58 57 54 49 46 47 51 53 54 54 57 60 61 60 58 58 59 61 61 60 60 60 59 59 61 61 60 59
99 100 101 101 100 97 97 97 98 100 101 100 100 101 100 103 104 96 84 77 75 72 67 62 61 61 62 64 64 63 61 58 56 53 51 49 47 47 46 46 47 47 47 46 46 46 47 48 50 51 51 52 55 58 60 62 62 60 58 58 58 55 49 45 46 50 54 57 56 56 58 63 65 64 62 61 62 62 62 63 64 63 62 62 61 60 60
100 101 102 104 103 100 98 97 95 97 100 100 100 101 100 101 104 102 93 83 78 76 73 66 60 59 61 63 63 63 62 60 58 56 54 52 51 50 50 51 50 50 50 49 49 50 52 53 54 54 54 55 57 61 67 68 65 60 59 60 58 53 48 47 47 50 55 58 59 58 58 59 61 62 62 62 63 63 63 64 65 66 65 64 63 61 59
105 104 104 104 105 104 102 99 96 95 97 98 99 100 100 100 101 103 100 92 84 80 77 71 63 59 59 61 62 62 62 61 60 58 56 55 53 52 52 53 53 53 54 54 54 55 56 57 57 57 57 58 58 61 66 69 64 58 59 62 60 52 47 46 48 51 54 56 58 59 58 58 59 59 59 61 64 65 65 65 65 66 65 64 64 64 61
107 107 106 105 107 107 104 102 99 96 95 97 98 99 100 101 100 101 103 100 93 86 81 76 69 61 58 59 60 60 61 62 61 59 58 56 55 55 55 55 56 57 59 60 61 61 61 61 60 58 58 59 59 61 63 64 62 59 60 62 61 55 49 46 48 52 54 54 55 57 57 57 60 61 60 61 65 69 69 67 67 67 67 66 66 66 66
108 109 107 106 107 107 106 105 103 98 96 97 98 99 100 101 100 100 101 102 99 92 85 80 74 65 58 57 58 59 60 61 61 60 58 57 57 58 57 58 61 63 64 65 66 66 65 65 64 61 59 58 58 59 61 62 60 61 63 63 62 58 54 51 50 52 55 55 54 56 58 57 59 63 65 64 66 70 71 70 69 69 71 72 72 71 70
106 107 106 106 106 106 105 105 103 101 99 98 98 99 100 99 98 98 99 100 99 94 89 84 77 69 61 57 56 58 59 60 61 61 59 59 60 61 61 63 66 68 69 70 70 68 67 67 67 62 59 58 57 57 60 63 62 63 66 69 68 64 61 58 55 54 57 59 57 57 60 60 59 62 65 65 67 69 71 72 72 72 74 77 78 77 77
97 99 102 106 108 107 107 106 104 104 102 98 97 98 99 99 100 98 98 101 101 97 93 89 81 73 65 59 56 57 58 59 60 61 61 62 63 64 65 67 69 71 72 71 71 70 68 69 70 66 60 59 58 58 60 64 64 65 68 72 73 71 67 64 62 60 61 62 62 60 61 62 62 62 63 65 66 68 70 72 74 75 75 78 81 82 82
91 90 91 94 97 101 106 108 108 107 103 99 98 99 100 101 101 97 95 98 100 98 96 93 85 77 69 62 58 57 58 59 60 61 63 64 65 66 69 69 69 71 72 70 70 70 69 69 71 71 68 64 60 59 61 64 65 65 69 73 75 75 73 69 66 65 64 64 64 64 62 62 63 64 66 67 67 69 71 73 75 77 77 79 81 83 83
90 89 87 85 85 88 96 104 108 108 102 97 98 100 100 99 98 96 92 91 95 98 98 94 88 81 73 67 62 59 59 60 61 62 64 65 66 69 70 70 70 71 71 69 69 70 71 71 71 74 76 72 64 60 60 64 65 65 70 76 78 77 75 71 67 66 64 63 64 67 67 67 67 68 71 73 73 73 74 75 76 77 78 80 83 85 85
86 87 87 85 83 83 89 98 106 107 104 99 98 98 98 97 96 94 89 86 90 95 94 91 90 87 77 70 67 65 63 63 63 64 65 66 68 71 71 72 72 70 68 68 69 70 71 71 71 76 80 78 71 64 60 62 67 68 71 79 82 80 76 72 66 63 62 62 67 71 71 72 72 72 75 80 80 78 78 77 77 78 78 80 84 88 89
83 83 83 83 82 83 89 97 102 104 104 105 103 100 99 98 96 93 89 85 86 88 89 91 94 87 76 73 74 71 67 66 67 67 67 68 71 73 72 74 76 72 67 69 71 70 70 71 71 75 80 82 80 72 63 63 70 73 76 83 86 82 80 75 67 63 64 67 73 77 76 76 77 78 80 84 84 81 79 77 76 77 77 78 83 87 88
88 87 85 84 86 89 94 99 102 103 105 107 105 101 99 97 94 91 89 86 83 84 87 91 91 83 77 82 82 72 66 68 70 69 70 71 73 73 74 78 80 75 71 73 76 72 70 73 75 74 77 86 91 82 68 68 75 77 79 87 89 85 84 81 73 69 72 76 80 83 81 80 80 80 83 86 84 79 75 73 73 74 74 76 81 84 84
96 95 93 91 93 98 102 102 103 104 105 105 105 103 101 96 91 90 91 89 85 83 85 89 89 84 81 85 83 73 68 72 73 71 73 75 74 73 75 79 83 80 75 77 81 76 72 78 84 79 75 87 100 90 71 73 83 83 81 87 91 89 89 86 81 80 83 84 84 84 83 82 82 82 84 84 82 78 75 73 72 74 73 75 80 83 83
99 99 100 100 101 104 106 104 102 103 104 104 105 105 103 98 92 89 91 92 88 83 84 89 92 87 83 85 86 80 74 72 71 73 77 78 77 77 76 78 84 84 78 80 86 81 73 79 90 86 77 89 107 97 73 72 86 91 90 94 97 95 94 91 88 90 91 89 86 84 81 80 81 82 82 82 80 79 79 77 74 73 74 76 80 83 82
101 101 103 103 103 105 106 105 103 102 102 103 105 105 104 103 97 91 90 94 93 89 88 92 93 91 90 90 87 82 78 75 73 75 76 76 79 82 82 83 86 84 78 81 89 86 76 79 90 88 82 95 112 102 78 75 88 95 97 99 100 98 96 93 91 92 92 89 87 85 80 77 78 79 79 79 78 78 80 80 77 75 75 77 80 81 79
102 102 103 103 102 104 107 107 103 101 100 102 104 104 104 104 101 95 94 98 99 97 97 95 90 92 98 96 88 85 88 84 76 72 71 73 76 78 79 85 92 88 80 84 92 90 83 85 88 85 86 102 112 99 81 82 94 99 98 99 97 92 89 87 85 85 84 83 83 82 78 76 76 77 78 77 76 76 78 78 76 76 77 79 81 81 81
101 102 103 103 101 103 106 107 105 102 99 98 100 102 102 103 104 102 101 102 103 103 104 100 93 97 106 103 92 91 95 86 72 69 73 77 78 74 71 78 89 89 84 85 92 94 94 93 88 83 90 106 112 97 81 85 98 104 103 100 94 87 83 81 79 78 79 80 80 78 76 75 76 77 78 79 79 80 81 80 77 77 81 83 83 84 84
100 101 103 104 104 103 103 104 104 102 99 95 96 99 101 103 106 106 105 105 106 106 108 108 105 106 108 101 90 92 97 87 72 68 73 78 82 78 72 74 84 90 89 89 92 97 100 97 88 85 94 107 110 99 87 88 100 107 107 103 98 93 90 88 85 84 85 86 84 81 79 79 80 81 82 83 84 85 88 87 84 84 86 88 88 87 87
101 100 98 100 103 104 103 100 99 99 99 98 98 100 102 105 108 109 106 105 105 104 106 110 110 105 99 95 92 95 97 89 76 69 69 75 82 81 74 73 81 91 95 97 97 100 100 95 88 90 101 108 103 94 93 98 104 105 104 103 104 104 103 99 97 97 97 96 94 90 86 86 89 90 89 90 90 92 93 92 91 90 92 93 92 90 88
100 99 93 91 96 101 102 97 94 96 100 101 101 103 104 105 108 110 107 105 104 102 102 107 110 103 95 93 94 93 90 87 82 75 70 71 76 78 75 74 77 84 93 101 103 100 97 91 85 91 106 109 95 85 93 106 108 104 103 104 107 109 109 105 103 103 103 101 98 95 93 92 95 97 97 97 96 95 94 92 91 93 95 95 94 94 92
91 92 90 88 91 96 99 99 97 99 103 104 105 107 108 105 106 108 106 105 105 103 100 103 107 103 96 94 94 92 90 91 88 80 74 73 75 76 76 76 76 79 88 99 102 96 88 82 79 88 105 109 92 82 93 106 106 102 104 107 108 109 109 105 102 102 102 101 99 98 97 96 97 98 100 100 98 96 94 91 90 93 97 97 96 97 96
82 84 86 86 86 90 95 99 101 102 103 102 103 106 105 103 105 108 109 108 107 104 102 104 105 101 100 101 101 95 91 88 85 81 78 76 74 73 73 75 78 82 87 94 95 88 78 74 79 93 106 105 93 87 94 100 100 99 103 107 108 109 106 102 99 99 100 101 101 100 99 98 97 97 99 100 98 95 93 90 89 95 100 100 98 98 97
79 79 80 80 82 86 92 96 97 98 101 102 102 101 100 99 100 104 107 107 103 99 102 107 105 100 99 104 104 96 87 82 80 80 79 77 76 78 77 76 81 89 91 88 83 76 69 71 84 99 104 97 91 94 98 99 99 102 105 105 106 105 100 97 97 99 99 101 103 103 101 100 99 99 99 98 95 93 92 92 94 99 101 99 97 98 97
83 78 74 74 79 88 95 94 92 93 98 103 103 102 101 100 100 102 104 101 95 93 100 109 109 103 100 103 103 98 90 84 81 80 79 78 78 78 77 78 84 92 91 78 67 64 67 73 85 99 102 93 86 90 97 100 102 105 104 101 100 99 96 96 99 101 101 104 106 104 102 102 102 101 100 98 95 92 91 94 99 103 102 97 94 95 95
88 80 74 72 76 85 91 92 90 90 92 97 102 103 103 102 104 104 101 97 95 98 104 111 111 106 102 102 101 98 96 96 92 85 79 75 73 73 77 85 90 90 82 67 56 59 70 75 78 90 101 98 87 82 85 90 93 94 93 92 93 95 96 100 104 105 105 106 106 104 103 104 104 102 101 99 96 92 92 95 99 102 102 99 96 96 96
91 85 80 76 74 78 82 86 88 87 86 88 93 96 97 100 105 105 99 96 102 109 110 110 110 108 103 101 101 99 99 100 99 90 81 80 81 81 83 87 88 84 77 65 56 61 74 80 81 88 100 101 91 81 77 76 78 81 84 87 91 96 100 105 108 108 108 107 106 104 104 105 105 103 100 97 94 93 96 99 100 99 99 99 98 97 97
Wind_Speed
44 43 43 43 44 46 45 40 37 33 31 29 28 26 26 25 26 27 27 27 27 26 23 20 19 16 14 16 13 10 9 7 5 4 3 3 2 1 2 3 4 6 8 11 13 15 16 18 19 20 21 22 23 25 25 26 27 27 28 28 29 29 28 27 25 24 23 22 22 21 20 19 18 18 17 17 16 16 16 15 15 14 13 12 11 10 10
48 46 45 45 47 48 45 41 38 35 32 31 29 28 26 26 27 28 28 28 28 27 25 22 21 18 17 17 15 12 10 8 6 5 4 3 2 1 1 2 3 5 8 10 12 14 15 16 18 19 20 21 23 24 25 26 27 28 28 29 29 29 28 27 26 25 24 23 23 22 21 21 20 20 19 19 18 17 17 17 17 16 16 15 14 13 13
52 51 49 48 49 49 45 42 40 36 34 33 31 30 27 26 28 30 30 29 29 28 27 25 23 21 20 19 16 14 12 10 8 6 4 3 3 3 3 3 4 6 7 9 11 13 14 16 17 19 20 21 23 24 25 26 27 28 29 29 29 29 28 27 25 24 23 23 23 22 22 21 21 21 20 20 20 20 19 19 19 18 18 17 16 16 16
52 51 49 49 50 49 46 43 41 37 36 34 31 31 29 28 30 32 31 30 30 29 27 26 25 24 22 21 19 16 14 12 10 8 6 4 4 4 5 5 6 7 8 9 10 12 14 16 18 19 21 22 23 25 26 27 28 29 30 30 30 30 29 27 25 24 23 23 22 22 21 21 21 21 21 21 21 21 20 20 20 19 19 19 18 18 18
50 47 47 49 50 49 45 44 41 37 36 34 33 33 31 29 30 32 32 32 31 30 29 27 27 26 24 22 21 18 16 13 11 10 8 6 5 6 6 7 7 8 9 9 11 13 15 17 18 20 22 23 24 25 26 28 29 30 31 31 31 31 30 28 26 24 23 23 22 22 21 21 21 21 21 21 20 20 20 20 20 20 20 20 19 19 19
48 45 46 48 49 48 46 45 42 38 36 35 34 33 31 29 30 31 32 32 32 32 31 29 28 27 25 23 22 20 17 15 13 12 10 8 7 8 8 9 9 10 11 11 12 13 16 18 19 21 22 23 25 26 27 28 29 30 31 32 32 31 30 28 26 25 24 24 23 22 21 21 21 21 20 19 19 20 20 21 21 21 21 21 20 19 19
48 45 45 46 48 48 47 45 42 39 38 37 36 35 32 31 31 31 31 33 34 34 33 31 29 27 26 25 23 21 19 17 15 14 13 11 10 9 10 10 11 11 12 13 13 15 17 19 20 22 23 24 25 26 28 29 30 31 31 32 31 30 29 27 25 24 24 24 24 23 23 22 21 20 20 20 20 21 21 22 22 22 22 22 21 20 19
48 46 44 45 46 48 48 46 42 40 39 38 38 36 33 31 32 33 34 34 34 35 35 33 30 28 28 26 25 23 21 19 17 16 15 14 13 12 12 12 12 13 14 15 15 17 18 20 21 23 24 25 26 27 28 29 30 31 32 32 31 30 28 26 25 25 25 25 25 24 24 23 21 20 21 21 21 22 22 23 23 22 22 22 21 20 20
50 48 45 44 45 48 49 47 43 42 40 40 39 38 36 34 33 34 35 35 35 35 35 35 33 31 30 28 26 24 23 21 20 19 18 17 16 15 14 14 14 15 16 16 17 18 20 21 22 23 24 25 26 28 28 29 31 31 32 32 31 30 28 26 26 26 26 27 26 25 24 22 21 21 21 22 22 23 24 24 23 23 22 22 21 20 19
52 49 46 45 46 48 49 48 45 43 42 42 40 39 37 36 34 34 35 35 36 36 36 36 34 33 32 30 28 26 25 23 22 22 21 20 19 18 17 16 17 17 18 18 18 19 21 22 23 24 25 26 27 28 29 30 31 32 32 32 31 29 28 27 27 27 28 28 27 25 23 23 22 22 23 23 24 24 24 24 24 23 23 22 21 20 19
54 51 48 46 47 49 49 48 46 44 43 43 42 41 39 38 37 37 35 35 36 37 36 36 35 34 33 31 30 29 27 26 25 24 23 22 21 20 19 18 19 19 19 19 19 20 21 22 24 25 25 27 28 29 30 31 32 33 33 32 30 29 28 27 27 27 29 29 26 23 22 22 22 23 23 24 25 25 25 25 24 23 23 22 21 21 20
55 53 50 47 48 49 50 49 47 46 45 44 43 42 40 39 39 39 37 35 36 37 36 36 36 34 33 33 31 30 29 28 27 26 25 24 23 22 21 20 21 21 21 21 21 21 22 23 24 25 26 27 28 29 30 31 32 33 32 31 29 28 27 27 27 28 28 27 25 22 22 22 22 23 24 24 25 26 26 26 25 24 23 22 21 21 20
57 55 52 49 48 50 50 49 47 46 46 45 44 42 41 40 40 40 39 37 36 37 36 36 36 34 33 33 33 31 30 29 29 28 27 26 25 23 23 23 23 23 23 23 22 22 23 24 25 26 27 28 28 29 30 31 32 33 32 30 28 27 26 27 27 27 27 25 23 23 23 22 22 24 24 25 25 26 27 26 26 25 24 23 22 21 20
59 57 54 50 49 51 50 48 47 47 47 46 44 43 42 41 40 40 40 38 37 37 36 36 36 35 34 34 33 32 32 31 30 29 28 27 26 25 25 24 24 25 25 25 24 24 24 25 26 27 28 28 29 29 30 31 32 32 31 29 27 26 25 25 25 24 24 23 21 22 23 23 23 23 24 24 25 26 26 26 26 26 25 24 23 21 21
60 58 54 51 51 52 51 48 47 47 47 46 45 44 43 41 40 40 40 39 39 38 36 35 36 36 35 34 34 33 32 32 31 30 30 29 28 27 26 26 26 26 26 26 26 26 26 26 27 28 28 29 29 30 30 31 31 30 30 28 25 24 23 23 23 22 22 22 22 21 21 21 22 23 23 24 24 24 25 25 26 26 26 26 24 23 22
60 58 55 52 52 53 51 48 48 48 47 47 46 45 43 42 40 39 40 40 40 38 35 35 37 37 36 35 34 34 33 33 32 31 31 31 30 29 28 27 27 27 28 28 27 27 27 28 28 28 29 29 29 30 30 30 29 29 28 25 23 22 21 21 20 21 20 20 21 22 21 21 21 22 23 24 24 24 24 24 25 25 26 26 26 25 24
60 58 56 54 54 53 51 49 49 49 48 47 46 45 44 42 41 40 39 39 39 39 37 36 37 38 38 36 35 35 34 34 33 33 33 32 31 31 30 29 29 29 29 29 29 28 28 28 28 29 29 29 30 30 29 28 28 28 26 23 20 20 19 19 19 20 20 20 21 22 23 23 23 23 23 24 24 24 24 24 25 25 26 26 27 27 26
60 58 57 55 55 54 52 50 49 49 49 48 47 46 45 43 41 40 39 38 38 39 40 38 37 38 39 38 37 36 35 35 35 35 34 34 33 32 31 31 31 31 30 30 30 29 29 29 29 29 29 29 29 29 27 26 26 26 23 20 18 18 18 18 19 19 20 20 21 21 22 22 23 23 23 23 24 24 25 25 25 25 25 25 25 26 26
61 59 57 56 55 54 52 51 50 49 49 48 47 46 45 44 42 40 39 38 36 36 38 39 38 37 38 39 38 37 37 36 36 36 35 35 35 34 33 33 32 32 31 31 30 30 30 30 29 29 29 29 28 27 26 24 24 22 19 17 17 17 17 17 18 19 20 20 20 20 20 21 22 22 22 22 24 25 25 25 24 25 26 26 26 26 26
62 60 59 57 56 55 53 52 51 50 49 48 48 47 46 44 42 40 39 38 36 35 35 37 38 38 38 39 39 38 38 38 37 37 36 36 36 35 34 34 33 32 32 31 31 31 30 30 29 29 28 27 26 25 24 22 21 19 17 15 16 16 16 17 18 18 19 19 20 20 20 20 21 22 22 22 22 23 24 24 25 25 25 27 28 28 28
63 61 60 59 57 56 55 54 52 51 50 49 48 48 46 44 43 41 39 37 37 37 36 35 36 37 37 38 38 39 39 39 38 37 37 37 36 35 35 34 34 33 33 32 31 31 30 30 29 28 27 25 24 23 21 20 18 16 15 15 15 15 15 16 16 16 15 16 17 19 20 20 21 21 22 23 23 23 23 24 25 26 26 27 28 29 29
64 62 61 60 58 56 56 55 53 52 51 50 49 48 47 45 43 41 40 38 37 36 36 36 35 35 36 37 37 38 38 38 38 38 38 37 36 36 35 34 34 33 33 32 31 30 30 29 28 26 25 23 22 20 19 18 16 14 14 14 15 15 15 15 15 15 14 15 15 17 19 20 21 21 22 23 24 24 24 24 25 26 27 27 28 28 29
65 63 62 60 58 56 56 55 54 53 52 50 49 49 47 46 44 42 40 39 37 36 35 35 34 34 35 36 36 37 37 37 38 38 38 37 36 36 35 34 33 33 32 32 30 30 29 27 26 24 22 21 19 18 16 16 15 14 14 14 14 13 13 13 13 13 14 15 16 17 18 19 20 21 22 23 24 25 25 26 26 27 27 28 29 29 29
66 65 63 61 59 57 56 55 54 53 52 51 50 49 48 47 45 43 41 39 37 36 34 33 33 34 34 35 35 36 37 37 37 37 36 35 35 35 34 33 33 32 31 30 29 28 27 25 24 22 20 18 17 16 15 15 14 13 14 14 13 12 12 12 12 12 13 15 16 18 18 18 19 21 22 23 24 25 26 27 28 28 29 30 30 31 32
68 66 65 63 61 59 57 56 54 53 53 52 50 49 49 48 46 44 42 40 38 36 34 33 33 33 33 34 35 35 36 37 36 36 35 34 34 33 33 32 31 31 30 29 28 26 25 23 21 19 17 16 16 15 14 14 13 13 13 13 12 11 11 11 11 11 13 14 15 16 18 18 18 19 20 22 23 24 25 27 28 29 30 30 31 32 33
69 68 66 64 63 61 59 57 55 54 53 53 51 49 49 48 47 45 43 41 39 37 35 33 33 32 32 33 34 35 36 36 36 35 34 34 33 32 32 31 30 30 28 27 26 24 22 21 19 17 16 15 15 14 13 13 12 12 12 11 11 11 10 9 9 10 12 13 14 15 16 18 19 19 20 21 23 24 25 26 28 29 30 31 32 33 34
71 70 68 66 64 63 61 59 57 55 54 54 53 51 49 48 47 46 44 42 40 38 36 34 33 32 32 32 33 33 34 34 34 34 34 33 32 32 31 30 29 28 27 25 24 22 20 19 18 16 15 14 13 13 12 12 12 12 11 10 10 11 10 9 9 10 12 14 15 15 15 17 18 20 21 22 23 24 25 26 28 29 30 31 32 34 35
72 71 69 68 66 64 63 61 59 57 56 55 54 52 50 48 48 46 45 43 41 39 37 36 34 33 32 32 32 32 32 33 33 33 32 32 31 30 29 29 28 26 25 23 22 20 19 18 16 15 14 13 12 11 11 11 11 11 10 10 11 11 10 9 10 11 12 14 16 17 17 17 17 19 21 22 23 24 26 27 28 30 31 32 33 34 35
74 72 71 69 68 66 64 63 61 59 57 56 55 53 51 49 48 47 46 44 42 41 39 37 35 33 32 31 31 31 31 31 31 31 31 30 30 29 28 27 26 24 23 21 20 19 18 17 16 15 14 13 12 11 10 10 11 10 10 10 11 12 11 10 10 12 13 14 16 17 18 18 19 20 21 22 24 26 27 28 29 31 32 34 35 36 37
74 73 72 71 69 67 65 64 62 61 59 57 56 55 53 51 49 48 47 45 44 42 40 39 37 35 33 32 31 30 30 30 30 30 30 29 28 27 26 25 24 23 21 20 19 18 17 17 16 15 13 12 11 10 10 10 10 10 10 11 12 13 13 13 12 13 15 16 17 18 19 20 21 22 23 24 26 27 29 30 31 32 34 35 37 38 39
75 74 73 72 70 69 67 65 64 62 60 58 57 55 54 53 52 50 49 47 45 43 42 40 39 36 34 32 31 30 30 30 30 29 29 28 27 26 25 24 23 22 21 19 19 18 17 16 16 15 13 12 11 10 10 10 11 11 12 13 13 14 15 16 15 15 17 18 19 20 21 22 22 24 26 26 27 29 31 32 33 34 36 37 39 40 41
76 75 74 73 71 70 69 67 66 64 63 60 58 56 55 54 53 52 50 48 46 45 43 42 40 38 36 34 32 31 30 30 29 29 28 27 26 25 25 24 23 22 21 19 19 18 17 16 16 15 13 13 12 11 10 11 12 12 13 14 15 16 17 18 18 18 19 20 21 22 23 24 25 25 27 28 29 31 32 34 35 36 37 39 40 42 43
78 76 75 73 72 71 70 69 68 66 65 62 60 58 56 54 53 52 52 50 48 46 45 43 42 40 38 36 34 32 31 30 30 29 28 27 26 25 25 24 23 22 21 20 19 18 17 17 16 16 15 14 14 13 13 13 14 14 15 16 17 18 19 20 21 21 21 22 23 24 24 26 27 28 29 30 31 33 34 36 37 38 39 40 41 43 44
80 78 77 75 74 72 71 70 69 68 67 64 62 60 57 56 55 54 53 52 50 48 46 44 43 42 40 38 36 34 33 31 30 29 29 27 26 26 26 25 24 23 22 21 20 19 19 18 17 18 18 17 17 16 15 15 16 16 17 18 18 19 21 21 22 22 23 23 24 25 26 27 29 30 31 33 34 35 36 38 39 40 40 41 42 44 45
82 81 79 78 77 75 74 73 72 71 69 67 65 63 60 58 56 55 55 54 51 49 48 46 44 43 42 40 38 36 34 33 32 31 30 28 27 27 26 26 25 24 23 22 21 21 21 20 19 20 20 20 19 18 16 16 17 18 18 20 20 21 22 23 23 23 24 24 25 27 28 30 31 32 34 35 37 37 38 39 40 41 42 43 44 45 46
84 82 82 80 79 78 76 75 74 73 71 69 67 66 63 60 58 57 56 55 53 51 50 48 46 45 44 42 40 39 37 35 34 32 31 30 29 28 27 27 26 26 25 24 23 23 23 22 22 22 22 23 21 20 18 17 18 19 20 21 23 23 23 24 24 25 25 25 26 28 30 32 33 34 35 37 38 39 40 41 41 42 43 44 45 46 48
85 84 84 82 81 79 78 77 76 74 72 72 72 70 66 64 61 59 58 57 55 53 51 49 49 47 44 42 42 42 40 37 36 35 33 32 31 30 29 28 28 28 26 26 26 25 25 24 23 23 23 24 24 23 21 19 20 21 22 23 24 25 25 26 26 27 27 27 29 31 33 34 36 37 37 38 40 41 41 42 42 44 45 45 46 47 49
87 86 85 84 82 81 79 78 77 76 76 76 75 72 69 67 64 61 59 58 57 55 53 51 51 49 46 45 46 44 41 40 39 37 36 35 33 32 31 30 30 30 28 28 28 27 26 25 25 24 24 24 26 26 24 22 22 23 23 24 26 27 27 28 29 29 29 30 32 34 35 37 38 38 39 40 41 42 42 43 44 45 46 47 48 49 50
88 88 87 85 84 82 80 78 77 78 79 79 77 74 72 70 66 62 60 59 58 57 55 53 52 51 49 48 48 46 43 43 42 40 38 38 37 35 33 33 33 32 31 30 30 30 27 27 28 27 25 26 28 29 27 24 24 25 25 25 27 28 29 30 31 31 32 33 34 36 37 39 40 40 41 41 42 43 44 45 45 46 47 48 49 51 52
89 89 88 87 86 84 81 79 79 80 80 79 78 76 74 70 67 64 62 60 59 58 56 55 54 53 51 51 50 48 47 46 44 42 41 40 39 37 36 35 35 35 33 32 32 32 29 28 30 30 28 27 31 33 30 26 25 26 26 27 29 30 31 32 33 34 35 37 37 38 39 40 41 42 42 42 43 45 46 47 47 48 49 50 51 52 53
90 90 89 89 88 86 83 82 82 81 80 79 78 77 74 71 68 65 63 61 60 58 58 58 57 55 54 54 53 51 49 48 47 46 44 42 41 39 38 37 38 37 35 34 34 34 32 31 32 32 30 29 32 35 32 29 27 27 28 29 31 32 33 34 35 36 37 38 39 40 41 41 42 43 43 44 44 45 46 48 49 50 50 51 52 54 55
93 92 91 91 90 88 87 86 85 83 81 79 77 76 73 71 68 65 63 62 61 60 60 60 59 56 56 57 56 53 53 53 51 48 45 44 43 42 40 39 40 40 37 36 36 36 35 35 34 33 31 32 35 36 34 31 31 31 30 32 33 34 35 36 36 37 38 39 40 42 42 43 44 44 45 46 46 47 47 49 50 50 51 53 54 55 57
95 94 93 92 91 91 90 89 87 85 82 79 76 74 71 69 67 64 63 63 62 61 61 62 60 59 60 61 58 56 57 56 53 49 47 46 46 45 41 40 42 42 40 38 38 38 38 38 37 34 33 34 36 37 35 33 33 34 34 35 36 36 37 38 38 39 40 41 42 43 44 45 46 47 47 48 49 49 50 51 52 52 53 54 56 57 58
97 96 95 93 92 92 92 91 89 85 82 78 75 73 70 68 66 64 63 64 65 64 64 64 65 65 65 63 60 58 59 58 54 51 49 48 48 47 44 42 42 43 42 41 41 40 41 40 38 36 36 37 38 38 37 36 36 36 37 37 38 39 40 41 42 42 43 45 46 46 47 48 49 50 50 51 51 52 52 54 54 54 55 56 57 58 59
98 98 97 96 94 92 92 91 88 85 81 77 75 73 71 69 67 66 66 67 68 68 68 69 69 69 67 64 61 60 61 59 56 53 52 51 50 49 47 44 44 44 44 44 43 43 43 41 39 38 39 40 39 38 38 39 39 39 39 39 40 41 42 43 45 46 47 48 48 49 50 51 51 52 53 53 53 54 54 55 56 56 56 58 59 60 60
99 100 99 97 94 92 91 89 85 82 80 78 76 75 74 73 72 71 71 71 72 71 71 71 73 72 68 65 64 63 61 60 58 56 54 52 52 51 49 47 47 46 46 47 47 46 45 43 40 40 42 43 42 39 39 41 42 42 41 41 42 43 44 45 47 48 49 50 50 51 51 52 52 53 54 54 55 55 56 57 57 57 58 59 60 61 62
101 101 99 97 95 92 90 86 83 81 80 80 79 79 78 77 77 76 76 76 75 74 72 73 75 74 69 67 66 65 63 61 60 58 55 54 53 52 51 50 49 49 49 50 51 49 46 44 42 42 45 47 44 40 41 43 44 44 44 44 44 45 46 48 49 50 50 51 51 51 52 52 53 53 54 55 56 57 58 58 58 59 60 60 61 62 63
101 100 99 98 95 92 88 85 83 83 83 83 82 82 82 81 80 80 80 80 78 75 73 74 77 75 71 70 70 69 66 63 61 58 57 55 54 52 52 51 51 51 52 53 52 50 47 45 44 46 48 49 46 43 43 45 46 46 46 46 47 48 49 50 50 51 51 51 52 52 52 53 54 54 55 56 57 58 59 60 60 60 61 62 62 63 64
100 100 99 97 94 91 88 87 87 86 85 84 83 83 83 82 82 82 83 82 80 77 75 77 78 76 73 73 74 71 67 64 62 60 58 56 54 54 54 53 53 54 56 55 52 50 48 47 47 49 51 50 47 45 46 46 46 47 48 48 49 50 51 51 51 51 51 51 52 53 53 54 55 56 56 57 58 59 60 61 61 62 63 63 63 64 65
100 100 98 95 92 91 90 90 90 88 86 85 84 83 82 82 83 84 84 83 81 79 78 79 79 77 75 75 75 72 67 65 64 62 60 58 57 56 55 55 56 58 59 56 51 49 49 48 48 51 53 51 48 47 47 47 47 48 49 49 50 51 51 51 51 52 51 52 53 54 55 56 57 57 58 59 60 61 61 62 62 64 65 65 64 65 66
101 99 96 93 92 92 92 92 91 89 88 87 85 84 84 83 83 84 84 82 80 80 80 80 79 78 76 75 74 72 68 67 67 65 62 60 58 57 57 58 60 61 61 56 50 49 51 51 50 51 53 53 50 48 48 47 48 49 50 50 51 51 51 51 52 53 53 54 55 56 57 58 59 60 60 61 62 63 63 63 63 64 65 67 66 66 67
101 97 94 93 93 93 93 93 91 90 89 88 88 87 86 84 84 85 85 82 80 81 81 81 80 78 76 75 75 74 71 69 68 66 62 61 61 61 61 62 62 62 61 56 51 49 52 53 52 51 54 55 53 50 50 49 49 50 51 51 52 53 53 53 55 56 56 57 58 59 60 61 62 62 63 63 64 65 65 65 64 64 64 66 67 67 68
Wind_Direction
197 199 201 205 205 199 194 192 190 189 191 192 194 197 199 201 202 200 197 196 196 195 195 194 194 195 194 193 192 191 186 184 185 179 170 168 157 102 65 48 38 28 21 20 18 16 15 13 12 12 12 11 10 10 10 10 9 8 8 7 6 5 4 5 5 5 6 6 5 5 6 7 8 9 9 7 4 360 356 354 352 349 348 348 345 340 338
201 203 205 207 204 199 195 193 191 191 193 195 197 199 201 205 205 203 200 198 197 198 199 200 201 200 198 199 201 201 199 198 198 194 191 194 208 234 322 354 7 11 11 9 9 9 8 7 6 7 6 6 6 6 5 5 4 4 4 3 3 2 1 1 1 1 1 1 1 1 2 3 4 3 2 359 356 351 347 344 341 338 337 336 334 330 328
205 204 206 208 204 199 197 195 193 193 194 197 199 200 202 206 206 204 202 201 200 199 201 204 204 204 205 206 207 208 210 212 213 210 208 214 237 260 287 317 338 350 356 358 360 2 3 1 0 0 0 1 1 1 1 1 0 360 360 359 359 360 360 360 359 358 358 357 357 358 359 359 359 358 355 351 347 343 340 337 334 332 329 328 327 324 321
206 205 207 207 202 198 197 196 194 194 196 199 202 203 204 205 205 204 203 203 202 201 203 206 207 208 209 210 211 213 216 220 223 224 224 231 252 268 281 298 315 328 338 344 350 355 355 353 353 354 354 355 356 356 356 356 356 356 356 356 356 357 358 358 357 356 355 354 355 356 356 355 354 351 348 345 343 340 338 336 334 332 329 328 326 323 319
202 204 205 205 201 198 197 197 196 197 199 201 203 206 207 208 207 206 206 205 203 203 206 208 208 210 211 213 215 217 220 225 230 233 235 241 256 268 277 287 299 311 319 328 338 344 344 344 346 346 347 349 350 351 352 352 353 353 352 352 353 354 355 355 354 353 352 352 353 354 354 351 349 346 345 344 343 342 340 339 337 334 332 330 329 326 321
198 201 204 205 202 199 198 198 199 200 202 204 206 208 209 210 210 209 208 207 206 206 209 209 209 211 212 215 218 220 222 228 234 240 244 248 257 266 275 283 291 299 305 314 325 331 333 335 338 339 341 343 345 346 348 349 349 349 349 349 351 352 353 352 351 350 348 349 350 351 349 347 346 345 346 346 346 345 343 342 339 338 335 334 332 328 324
197 200 204 206 205 203 200 200 201 202 204 206 207 209 210 212 212 211 209 208 208 209 210 211 211 213 214 217 219 222 225 230 237 243 248 252 257 264 271 279 286 291 296 303 313 320 324 327 330 332 335 338 341 342 344 345 345 345 346 347 348 350 351 350 348 346 345 345 346 347 346 346 347 348 348 349 349 347 346 345 344 342 340 339 336 332 328
199 202 205 207 208 207 205 203 203 204 206 208 208 209 211 211 211 211 210 210 210 211 212 213 214 214 216 218 221 223 226 231 237 244 249 254 258 263 269 274 280 285 290 297 305 312 316 320 324 327 330 334 337 339 340 341 341 342 343 344 346 348 348 347 345 343 341 341 344 346 346 347 350 349 349 350 350 350 349 348 348 347 345 344 341 337 335
202 205 207 209 210 210 209 206 204 206 207 208 209 210 212 212 211 212 212 211 212 214 214 215 216 216 218 220 222 224 227 231 237 244 249 253 258 262 267 272 277 282 286 293 300 306 310 314 318 322 326 330 332 335 336 337 338 339 340 342 344 346 346 344 343 340 338 341 346 348 347 348 351 350 350 352 352 352 352 352 352 351 350 349 346 343 340
205 207 209 210 211 212 211 209 206 207 208 208 209 210 212 213 212 213 213 213 214 215 216 216 217 218 220 222 224 226 228 232 237 243 248 252 256 260 265 271 275 279 284 289 296 301 305 309 313 317 322 326 328 331 333 334 336 337 338 340 343 344 343 342 340 338 337 341 347 348 346 349 351 350 351 352 353 355 356 355 354 354 354 353 352 349 346
207 209 210 211 213 212 212 210 209 209 209 209 208 209 211 213 214 213 214 215 217 218 218 218 219 220 221 223 225 227 229 233 238 242 247 251 255 259 264 269 273 277 282 286 292 297 301 305 310 314 318 322 325 328 330 332 333 334 336 339 341 342 341 339 337 335 336 342 348 349 347 349 350 349 351 353 353 355 358 357 356 356 356 356 355 354 352
208 210 211 212 214 213 212 212 211 211 211 210 209 209 211 214 216 216 216 218 219 220 220 221 221 222 223 225 227 228 230 233 237 241 246 250 254 258 262 267 272 275 280 284 288 293 297 302 306 311 314 318 322 325 327 330 331 332 334 337 339 340 338 335 334 333 336 343 348 347 347 349 350 349 352 354 354 355 357 358 357 357 357 357 357 356 354
210 212 212 213 214 214 213 213 213 213 213 213 211 210 211 213 216 218 218 219 220 221 222 222 223 224 225 227 228 230 231 234 237 241 245 248 252 257 261 266 270 274 278 281 285 290 294 299 303 307 311 315 319 322 325 327 329 329 331 335 338 337 334 332 333 334 338 344 347 346 346 350 352 351 351 354 354 354 356 357 357 357 357 357 356 356 354
211 213 212 213 214 214 213 213 214 215 215 214 214 213 212 213 216 218 220 221 221 221 223 224 224 225 227 228 230 231 233 235 238 241 244 248 252 256 260 264 268 272 276 279 283 288 292 297 301 304 308 313 317 320 323 325 326 327 329 333 336 334 330 331 333 336 340 344 346 346 347 349 351 351 349 351 353 352 352 354 355 355 356 356 356 355 353
211 212 211 212 214 214 213 213 214 215 215 215 215 215 214 214 216 218 220 221 222 222 224 226 225 225 227 229 230 232 234 236 238 241 244 247 251 255 259 263 267 271 275 278 282 287 291 295 299 302 307 311 315 318 320 322 324 324 326 332 334 330 329 332 334 337 341 343 344 347 349 348 348 348 347 348 351 351 350 350 352 353 354 354 354 354 352
210 211 210 212 214 214 213 214 214 215 216 216 216 216 216 216 217 218 220 222 222 223 224 227 227 227 229 230 232 234 236 238 240 242 245 248 251 254 258 262 266 270 274 278 282 286 289 293 297 301 306 309 313 316 318 320 321 321 325 331 331 327 329 333 334 337 342 343 343 345 348 348 348 347 347 347 348 349 349 349 350 351 353 353 353 352 351
209 209 210 211 214 214 213 214 214 215 216 216 216 216 217 218 218 219 220 222 223 223 225 228 229 230 230 232 233 235 237 239 242 243 246 249 251 255 258 262 266 269 273 277 281 284 288 292 296 300 304 307 311 314 316 319 319 320 325 330 327 326 331 333 334 338 343 344 343 345 347 348 348 349 350 348 347 348 350 351 351 351 352 352 352 350 349
208 208 210 212 213 214 214 214 214 215 216 217 217 217 218 219 220 220 221 223 223 225 227 228 229 231 232 233 235 236 238 241 243 245 248 250 253 256 259 262 265 268 272 276 280 283 287 291 295 299 302 305 309 312 315 316 316 319 325 328 324 326 331 333 335 339 341 343 345 347 349 349 350 353 354 351 350 352 354 355 354 352 351 351 352 351 349
207 208 210 212 213 214 214 214 214 215 216 217 217 217 218 219 221 221 223 223 224 226 229 230 230 233 233 234 236 238 240 242 244 246 249 252 254 257 259 262 265 269 272 276 279 283 287 290 294 298 301 304 307 310 312 314 315 319 324 324 321 326 332 333 337 341 343 344 347 352 355 354 354 357 359 358 356 357 358 358 357 356 354 352 353 354 353
208 209 211 212 212 213 214 214 214 215 216 217 217 218 218 220 221 222 224 224 225 227 229 231 232 234 235 235 237 239 241 243 245 247 250 252 255 257 260 263 266 269 273 276 280 283 286 290 293 296 299 302 305 307 310 311 313 318 321 320 321 327 332 334 339 344 347 347 349 354 359 360 358 359 1 3 3 3 2 0 360 360 359 357 356 357 358
208 210 212 212 212 212 214 215 215 215 215 217 217 218 219 220 221 223 224 225 226 228 230 232 234 235 236 238 239 240 242 244 246 248 250 253 255 258 261 264 267 270 274 277 280 283 286 289 292 295 298 301 303 306 308 309 312 317 319 317 321 328 332 336 342 347 351 352 354 358 0 2 3 3 2 3 4 5 4 3 1 1 2 2 360 358 357
207 209 211 212 212 212 214 214 214 214 215 217 217 218 218 219 221 223 224 226 228 229 231 233 235 237 238 239 240 242 244 246 247 249 251 254 256 259 262 265 268 271 273 276 280 283 286 288 291 293 296 299 302 304 306 307 311 315 316 316 322 329 334 340 347 350 354 359 3 6 6 4 4 5 4 3 3 3 4 4 4 2 1 1 0 358 356
206 208 210 211 211 212 213 214 214 214 215 216 217 218 218 219 221 223 224 226 229 230 232 235 237 238 240 241 242 243 245 246 248 250 252 254 256 259 262 265 268 270 273 276 279 282 284 287 289 292 294 297 300 302 303 304 309 313 314 317 325 331 336 344 352 355 359 4 7 10 13 11 7 7 7 7 6 5 5 5 5 5 4 2 1 359 356
207 207 208 209 210 212 213 215 215 215 215 217 218 218 219 219 220 222 224 226 228 231 233 235 237 239 240 242 243 244 246 247 249 251 252 254 256 259 261 264 267 269 272 275 277 280 282 284 287 289 292 294 296 298 299 302 307 312 315 320 328 334 338 347 356 360 4 8 8 7 10 13 11 8 8 8 7 6 5 4 4 4 3 2 1 359 357
207 208 209 209 210 211 213 214 215 215 215 217 219 219 219 219 220 222 224 226 228 230 232 235 237 239 241 243 244 245 247 248 249 251 252 254 256 258 261 263 265 268 271 273 275 277 279 281 283 286 288 290 291 294 297 302 307 311 315 322 327 331 337 348 357 0 2 7 9 6 3 5 8 7 6 5 4 3 2 1 1 1 360 359 358 357 356
208 209 210 210 211 212 213 214 215 215 215 216 219 220 220 220 220 221 223 225 227 229 231 234 236 238 240 242 244 245 247 248 249 251 252 254 255 257 259 262 264 266 268 271 273 274 276 278 280 282 283 285 288 292 296 301 305 309 314 320 321 323 332 346 356 358 357 358 2 3 360 358 358 359 0 0 359 359 358 358 357 357 357 356 354 354 354
210 210 211 212 212 213 213 214 215 215 215 216 218 221 221 221 221 222 223 225 227 228 231 233 235 237 240 242 244 245 247 248 250 250 252 253 254 256 258 260 262 264 265 267 268 270 272 274 276 278 280 282 285 290 294 297 300 304 311 314 312 315 325 338 347 352 351 349 350 354 356 355 352 352 354 355 355 355 355 354 354 353 353 352 352 352 352
211 211 212 212 213 213 214 215 215 215 215 216 218 220 222 222 222 222 223 225 226 228 230 233 235 236 238 241 243 245 247 248 249 250 251 252 253 255 256 257 259 260 262 263 264 266 268 269 271 274 277 279 281 283 287 291 294 298 303 304 303 307 316 327 337 342 344 342 342 344 348 351 349 348 349 350 351 351 351 351 350 349 349 349 348 348 349
212 213 213 213 213 214 215 215 216 216 216 216 217 220 222 223 223 223 224 224 226 227 230 232 234 236 238 240 243 244 246 248 248 249 250 251 251 252 253 254 255 256 257 259 261 262 265 267 269 270 272 274 276 278 280 283 287 290 294 296 298 301 308 318 328 333 334 334 335 337 341 344 345 344 345 346 346 346 346 346 346 345 345 345 345 344 345
213 214 214 214 214 215 215 216 216 217 216 216 217 219 222 223 224 224 224 225 225 227 229 231 233 235 236 239 241 243 245 246 247 248 248 249 249 250 250 250 251 251 252 254 256 259 262 264 266 268 269 269 270 273 276 277 279 283 287 290 294 298 303 311 320 325 326 327 329 332 334 337 339 339 340 341 342 342 342 342 342 342 342 342 342 341 341
213 214 215 216 216 216 216 217 217 217 217 216 217 219 221 223 224 224 224 225 225 227 228 230 232 234 235 237 239 241 243 244 245 246 246 247 247 247 247 247 247 248 248 250 252 255 257 261 263 263 264 264 264 264 267 270 274 278 284 289 293 297 301 307 314 319 320 321 324 327 328 331 334 335 335 336 338 339 339 339 339 340 340 340 339 339 339
214 214 216 217 218 218 218 218 219 218 218 217 217 218 220 222 224 224 225 225 226 227 227 229 230 232 234 235 237 239 240 242 243 244 245 245 244 244 244 244 244 245 246 247 249 251 253 256 258 259 259 260 261 261 262 267 271 276 282 289 294 296 299 304 310 315 317 318 320 322 324 326 329 331 332 333 335 336 336 337 337 338 338 338 338 337 337
215 215 216 217 219 220 220 220 220 220 219 218 217 218 220 222 223 224 225 226 226 227 228 228 229 231 232 234 235 237 239 240 241 243 243 243 243 243 243 243 242 243 244 244 246 248 250 252 255 258 259 260 262 264 265 269 272 277 281 287 291 294 298 302 307 310 312 314 316 318 320 322 325 328 330 331 333 334 334 335 335 335 336 337 336 336 336
216 216 217 218 219 221 222 222 222 222 221 220 219 219 220 221 222 224 225 225 226 227 228 229 229 230 231 233 234 236 237 239 240 241 242 242 242 242 243 243 242 242 243 243 243 245 247 250 253 259 262 264 265 267 269 271 274 277 282 286 290 293 296 300 303 306 308 310 313 315 317 320 322 325 328 329 330 331 332 332 332 333 333 334 334 334 334
217 218 218 219 220 221 222 223 223 223 223 222 220 220 220 220 222 223 225 225 226 227 228 229 229 230 231 232 233 235 236 238 239 240 241 241 241 242 242 243 243 242 242 243 243 245 247 251 255 259 263 266 268 268 269 272 275 278 283 287 290 292 295 297 300 301 304 307 310 313 315 318 320 323 326 326 327 328 328 329 329 330 331 331 332 332 332
218 219 220 220 221 222 223 224 224 224 224 223 222 222 221 221 222 223 224 225 226 227 228 229 230 230 230 231 233 234 235 236 238 240 241 241 241 242 242 243 244 244 243 244 245 247 250 254 256 259 263 266 269 270 271 274 278 282 285 288 290 293 294 296 297 299 302 306 309 311 313 316 318 320 322 323 323 324 325 326 327 328 329 330 330 330 330
218 219 220 221 221 222 223 224 224 225 224 224 223 222 221 221 222 223 224 225 226 227 229 229 230 231 230 231 233 234 234 235 237 238 240 241 241 242 242 243 244 245 245 247 249 251 253 256 257 258 260 264 268 271 274 277 280 283 285 287 289 292 293 295 296 298 302 305 307 309 311 313 315 317 319 321 321 321 322 324 325 326 327 328 328 329 329
218 219 220 220 221 222 222 223 224 225 225 225 224 223 223 222 222 223 224 225 226 227 228 229 231 231 231 231 233 233 233 235 236 237 239 240 241 241 242 243 245 247 247 249 251 253 254 256 257 256 258 263 266 270 274 278 280 282 284 286 288 290 292 294 295 298 301 303 306 307 309 312 313 315 317 318 318 319 321 322 324 325 326 327 327 327 327
218 219 220 220 220 221 221 222 223 224 224 225 224 224 223 223 223 223 224 225 226 227 229 230 231 232 231 232 234 234 233 234 236 236 238 240 240 241 242 243 245 247 248 249 251 252 252 253 256 257 258 263 267 270 273 277 280 282 284 286 287 289 291 293 295 297 299 302 304 306 308 310 312 314 315 316 317 318 320 321 323 323 324 326 326 326 326
218 219 220 220 220 220 220 221 222 223 224 224 224 224 224 224 224 223 224 225 226 228 229 231 232 232 232 233 234 235 234 234 235 236 237 238 240 241 242 244 245 247 247 248 251 252 251 251 254 258 260 264 269 272 274 276 278 280 282 284 285 287 289 291 294 296 298 301 303 305 306 308 310 312 314 316 317 318 319 320 321 322 323 324 325 325 325
219 219 220 221 221 220 220 220 221 222 222 223 224 224 224 224 224 224 224 225 226 228 230 231 232 233 233 234 234 235 236 236 235 235 236 238 239 240 242 244 246 248 248 248 251 252 252 252 255 258 262 266 269 272 275 278 278 278 280 281 283 285 288 291 293 296 298 300 303 304 306 308 310 312 313 314 316 317 318 319 320 321 322 323 324 324 324
219 219 220 221 221 221 221 221 221 221 222 222 223 224 224 224 225 225 225 226 227 228 230 232 232 233 234 235 234 235 236 236 235 235 236 238 239 240 240 243 246 248 248 249 251 253 254 255 257 259 262 266 269 271 274 277 279 279 281 282 283 285 288 290 293 295 297 300 302 304 306 308 309 311 312 313 314 315 316 316 318 320 321 322 323 323 324
219 219 220 221 221 221 222 222 222 222 222 222 222 224 225 225 226 226 227 228 228 228 230 232 233 233 234 235 234 234 236 237 237 237 237 238 240 241 241 242 246 248 248 249 251 253 255 257 258 260 262 265 268 270 273 276 278 281 283 284 286 288 290 292 294 296 298 300 302 303 305 307 309 310 311 312 313 314 315 316 317 319 320 321 321 322 323
219 220 220 221 221 222 223 223 223 222 222 222 223 224 225 226 227 227 228 229 229 229 229 231 232 232 233 234 234 234 237 238 238 238 238 239 241 242 242 243 246 249 250 250 252 253 255 257 259 261 263 264 266 270 273 275 278 280 283 285 287 290 292 294 296 298 300 302 303 304 306 307 309 309 311 312 313 313 314 315 316 318 319 319 320 321 321
220 220 221 221 221 222 223 223 223 223 223 223 224 224 224 225 226 227 227 229 230 229 229 230 232 232 233 234 234 235 236 238 239 239 239 240 241 243 244 244 246 249 251 253 253 254 256 257 259 262 264 264 266 269 273 275 277 279 282 285 287 290 293 295 297 299 301 302 303 305 306 307 308 309 310 311 312 312 313 314 315 316 317 317 318 319 320
220 220 221 221 221 222 223 224 224 224 224 224 224 225 225 225 225 226 227 228 230 230 230 232 234 234 233 234 234 235 236 238 239 239 240 241 242 244 245 245 246 248 251 253 254 255 256 258 259 262 264 265 266 268 272 274 276 278 281 283 286 289 293 295 297 299 300 301 302 303 305 306 307 308 308 309 310 310 311 312 313 314 315 316 317 318 319
220 220 221 221 221 222 223 224 224 224 225 225 225 225 225 225 225 227 228 228 229 230 231 233 235 235 234 234 235 235 235 236 238 239 240 241 242 244 246 247 248 249 250 252 254 255 256 258 260 262 264 266 267 268 270 272 274 276 279 281 285 288 292 294 296 297 298 299 300 302 303 304 305 306 307 307 308 309 309 311 312 313 313 314 316 317 317
220 220 221 221 221 222 223 223 224 224 225 225 225 225 226 226 226 227 228 229 230 230 231 233 235 235 235 235 235 235 235 235 237 238 239 241 242 244 246 248 249 250 251 252 254 255 257 258 260 262 264 265 267 268 269 271 273 275 277 280 284 288 290 292 294 295 296 297 299 300 302 303 304 305 306 307 307 308 309 309 311 311 312 313 314 315 316
220 221 221 220 221 221 223 223 224 224 224 225 226 226 227 227 228 229 230 231 231 231 232 234 235 235 235 235 236 236 236 236 237 239 240 241 242 244 246 247 249 250 251 252 253 256 258 259 261 262 264 265 267 268 269 271 273 275 277 280 284 287 289 291 292 293 294 296 297 299 301 303 304 305 306 306 307 308 308 309 310 311 311 312 313 314 315
221 221 221 220 220 221 222 224 224 224 224 225 226 226 227 228 229 230 231 232 232 233 233 234 236 236 235 236 237 238 237 238 239 239 240 241 242 243 246 248 249 250 251 252 253 256 259 259 261 263 265 266 267 268 270 272 274 276 278 281 284 286 288 290 291 292 294 295 296 298 300 301 302 304 305 305 306 307 307 308 309 310 310 311 313 314 314
222 221 220 220 220 221 222 223 224 224 224 225 226 226 227 228 229 231 231 232 232 233 233 234 236 236 236 237 238 238 238 238 239 240 240 242 243 244 246 247 248 250 252 253 255 257 259 260 261 263 266 268 268 269 270 272 274 276 278 281 283 285 287 288 290 291 293 294 296 297 299 300 301 302 303 304 305 306 306 307 308 309 309 311 312 313 314
222 221 221 221 221 221 222 223 224 225 225 226 226 227 227 228 229 231 231 231 231 233 233 234 236 237 236 237 238 238 237 237 239 240 242 243 245 245 245 247 249 251 253 255 256 257 259 261 262 263 266 268 269 270 271 272 273 276 278 280 282 284 286 287 288 290 292 293 295 296 297 299 300 301 302 303 304 305 306 306 307 307 308 309 311 312 313